TimeMST,TemperatureF,Dew PointF,Humidity,Sea Level PressureIn,VisibilityMPH,Wind Direction,Wind SpeedMPH,Gust SpeedMPH,PrecipitationIn,Events,Conditions,WindDirDegrees,DateUTC
6:35 AM,32.0,12.2,44,29.90,10.0,South,12.7,-,N/A,,Clear,180,2012-12-30 13:35:00
6:55 AM,32.0,14.0,48,29.89,10.0,South,10.4,-,N/A,,Clear,180,2012-12-30 13:55:00
7:15 AM,32.0,14.0,48,29.89,10.0,South,12.7,-,N/A,,Clear,190,2012-12-30 14:15:00
7:35 AM,32.0,14.0,48,29.89,10.0,South,10.4,-,N/A,,Clear,180,2012-12-30 14:35:00
7:55 AM,32.0,12.2,44,29.89,10.0,SSW,9.2,-,N/A,,Clear,200,2012-12-30 14:55:00
8:15 AM,32.0,12.2,44,29.90,10.0,SSW,10.4,-,N/A,,Clear,200,2012-12-30 15:15:00
8:35 AM,33.8,12.2,41,29.90,10.0,SSW,11.5,17.3,N/A,,Clear,200,2012-12-30 15:35:00
8:55 AM,35.6,14.0,41,29.90,10.0,South,12.7,-,N/A,,Clear,190,2012-12-30 15:55:00
9:15 AM,37.4,14.0,38,29.89,10.0,South,15.0,18.4,N/A,,Clear,170,2012-12-30 16:15:00
9:35 AM,39.2,14.0,36,29.90,10.0,South,15.0,21.9,N/A,,Partly Cloudy,170,2012-12-30 16:35:00
9:55 AM,39.2,12.2,33,29.90,10.0,South,20.7,27.6,N/A,,Partly Cloudy,180,2012-12-30 16:55:00
10:15 AM,41.0,14.0,33,29.90,10.0,South,21.9,27.6,N/A,,Clear,190,2012-12-30 17:15:00
10:35 AM,41.0,14.0,33,29.91,10.0,South,17.3,29.9,N/A,,Clear,180,2012-12-30 17:35:00
10:55 AM,41.0,14.0,33,29.91,10.0,South,18.4,32.2,N/A,,Clear,190,2012-12-30 17:55:00
11:15 AM,41.0,14.0,33,29.90,10.0,SSW,21.9,32.2,N/A,,Clear,200,2012-12-30 18:15:00
11:35 AM,41.0,14.0,33,29.88,10.0,South,21.9,27.6,N/A,,Clear,190,2012-12-30 18:35:00
11:55 AM,41.0,14.0,33,29.87,10.0,South,16.1,26.5,N/A,,Clear,180,2012-12-30 18:55:00
12:15 PM,41.0,15.8,36,29.86,10.0,SSW,23.0,27.6,N/A,,Partly Cloudy,200,2012-12-30 19:15:00
12:35 PM,41.0,15.8,36,29.85,10.0,South,12.7,24.2,N/A,,Clear,190,2012-12-30 19:35:00
12:55 PM,39.2,15.8,39,29.84,10.0,SW,16.1,19.6,N/A,,Partly Cloudy,230,2012-12-30 19:55:00
1:15 PM,39.2,15.8,39,29.82,10.0,SSW,13.8,-,N/A,,Partly Cloudy,210,2012-12-30 20:15:00
1:35 PM,39.2,15.8,39,29.81,10.0,SW,12.7,-,N/A,,Partly Cloudy,220,2012-12-30 20:35:00
1:55 PM,39.2,15.8,39,29.81,10.0,SSW,13.8,-,N/A,,Clear,210,2012-12-30 20:55:00
2:15 PM,39.2,15.8,39,29.80,10.0,SSW,15.0,-,N/A,,Clear,210,2012-12-30 21:15:00
2:35 PM,39.2,15.8,39,29.80,10.0,SW,15.0,-,N/A,,Clear,230,2012-12-30 21:35:00
2:55 PM,39.2,14.0,36,29.80,10.0,SSW,12.7,-,N/A,,Clear,210,2012-12-30 21:55:00
3:15 PM,39.2,15.8,39,29.80,10.0,SW,12.7,-,N/A,,Scattered Clouds,220,2012-12-30 22:15:00
3:35 PM,37.4,14.0,38,29.79,10.0,SSW,12.7,-,N/A,,Overcast,210,2012-12-30 22:35:00
3:55 PM,37.4,14.0,38,29.79,10.0,SSW,12.7,19.6,N/A,,Overcast,200,2012-12-30 22:55:00
4:15 PM,37.4,14.0,38,29.79,10.0,SW,10.4,-,N/A,,Mostly Cloudy,220,2012-12-30 23:15:00
4:35 PM,37.4,14.0,38,29.79,10.0,SW,11.5,-,N/A,,Mostly Cloudy,230,2012-12-30 23:35:00
4:55 PM,35.6,15.8,44,29.79,10.0,SW,12.7,-,N/A,,Scattered Clouds,230,2012-12-30 23:55:00
5:15 PM,35.6,15.8,44,29.79,10.0,SSW,12.7,18.4,N/A,,Scattered Clouds,210,2012-12-31 00:15:00
5:35 PM,35.6,17.6,48,29.79,10.0,SSW,11.5,-,N/A,,Mostly Cloudy,210,2012-12-31 00:35:00
5:55 PM,33.8,17.6,52,29.80,10.0,SW,13.8,-,N/A,,Mostly Cloudy,230,2012-12-31 00:55:00
6:15 PM,32.0,19.4,60,29.81,10.0,SW,15.0,19.6,N/A,,Overcast,230,2012-12-31 01:15:00
6:35 PM,32.0,21.2,64,29.83,9.0,SW,13.8,-,N/A,,Overcast,220,2012-12-31 01:35:00
6:55 PM,30.2,24.8,80,29.84,5.0,SW,10.4,17.3,N/A,Snow,Light Snow,220,2012-12-31 01:55:00
7:15 PM,28.4,24.8,86,29.83,2.0,SSW,8.1,-,N/A,Snow,Light Snow,200,2012-12-31 02:15:00
7:35 PM,28.4,24.8,86,29.83,10.0,South,10.4,-,N/A,,Mostly Cloudy,180,2012-12-31 02:35:00
7:55 PM,28.4,24.8,86,29.82,8.0,South,8.1,-,N/A,,Overcast,170,2012-12-31 02:55:00
8:15 PM,28.4,24.8,86,29.82,9.0,South,10.4,-,N/A,,Overcast,180,2012-12-31 03:15:00
8:35 PM,28.4,24.8,86,29.82,5.0,South,9.2,-,N/A,,Overcast,180,2012-12-31 03:35:00
8:55 PM,28.4,24.8,86,29.81,10.0,South,10.4,-,N/A,,Mostly Cloudy,190,2012-12-31 03:55:00
9:15 PM,28.4,24.8,86,29.81,8.0,South,11.5,-,N/A,,Mostly Cloudy,180,2012-12-31 04:15:00
9:35 PM,28.4,24.8,86,29.80,4.0,South,16.1,19.6,N/A,Rain,Freezing Rain,190,2012-12-31 04:35:00
9:55 PM,28.4,24.8,86,29.80,4.0,South,15.0,20.7,N/A,Rain,Freezing Rain,190,2012-12-31 04:55:00
10:15 PM,28.4,24.8,86,29.80,3.0,SSW,17.3,-,N/A,Rain,Freezing Rain,200,2012-12-31 05:15:00
10:35 PM,28.4,24.8,86,29.80,4.0,SSW,15.0,20.7,N/A,Rain,Freezing Rain,200,2012-12-31 05:35:00
10:55 PM,26.6,24.8,93,29.80,1.2,South,15.0,19.6,N/A,Snow,Light Snow,190,2012-12-31 05:55:00
11:15 PM,26.6,24.8,93,29.81,1.5,SSW,11.5,21.9,N/A,Snow,Light Snow,200,2012-12-31 06:15:00
11:35 PM,26.6,24.8,93,29.81,2.0,SSW,9.2,17.3,N/A,Snow,Light Snow,200,2012-12-31 06:35:00
11:55 PM,26.6,24.8,93,29.82,2.0,SW,10.4,-,N/A,Snow,Light Snow,220,2012-12-31 06:55:00